Regional Weather Roundup
Issued by NWS

Home | Current Version | Previous Version | Text Only | Print | Product List | Glossary On
Versions: 1 2 3 4 5 6 7 8 9 10 11 12 13 14 15 16 17 18 19 20 21 22 23 24 25 26 27 28 29 30 31 32 33 34 35 36 37 38 39 40 41 42 43 44 45 46 47 48 49 50
000
ASUS45 KSLC 290210
RWRUT

UTAH REGIONAL WEATHER ROUNDUP
NATIONAL WEATHER SERVICE SALT LAKE CITY UT
800 PM MDT TUE JUL 28 2015

UTZ001>011-023>025-290300-

NORTHERN UTAH

CITY           SKY/WX    TMP DP  RH WIND       PRES   REMARKS
BRIGHAM CITY   CLEAR     75  21  13 E5        30.21S
HILL AFB       CLEAR     73  26  17 N7        30.23S
LOGAN          CLEAR     73  30  20 N5        30.22S
OGDEN          CLEAR     74  26  16 NW6       30.21S
PROVO AIRPORT  NOT AVBL
SALT LAKE CITY CLEAR     75  25  15 NW10      30.19S
VERNAL         CLEAR     78  29  16 N8        30.16R
WENDOVER       CLEAR     75  19  12 E9        30.21R
HEBER CITY     CLEAR     73  27  17 CALM      30.23R
WEST JORDAN    CLEAR     72  30  21 NW10      30.22S

$$

UTZ012>022-026-027-290300-

SOUTHERN/CENTRAL UTAH

CITY           SKY/WX    TMP DP  RH WIND       PRES   REMARKS
BLANDING       CLEAR     83  24  11 NW8       30.20R
BRYCE CANYON   CLEAR     74  32  21 NW10      30.29R
CEDAR CITY     CLEAR     80  26  13 N10       30.16R
DELTA          CLEAR     80  23  12 N14       30.16S
HANKSVILLE     CLEAR     90  30  12 CALM      30.04S
MILFORD        CLEAR     82  27  13 NE15      30.14R
MOAB/CYNLANDS  CLEAR     88  26  10 W5        30.04S
PRICE          CLEAR     80  25  13 NW15G21   30.19R
ST GEORGE      CLEAR     97  34  11 W10       29.93R HX  91
KANAB          CLEAR     84  27  12 W8        30.13R

$$

REGIONAL REPORTS     COLORADO/ARIZONA

CITY           SKY/WX    TMP DP  RH WIND       PRES   REMARKS
CRAIG, CO      CLEAR     73  32  22 W7        30.23R
GRAND JUNCTION CLEAR     84  25  11 NW9       30.07R
RIFLE          CLEAR     81  32  17 N8        30.14R
MONTROSE       PTCLDY    81  41  24 NW8       30.15R
CORTEZ         CLEAR     81  31  16 SW5       30.14R
PAGE, AZ       CLEAR     94  25   8 CALM      29.99S
GRAND CANYON   CLEAR     81  21  11 NW8       30.22R
KINGMAN        CLEAR     93  25   8 SW12      29.97R
FLAGSTAFF      PTCLDY    78  37  22 SW7       30.25R

$$

REGIONAL REPORTS    NEVADA/IDAHO/WYOMING

CITY           SKY/WX    TMP DP  RH WIND       PRES   REMARKS
LAS VEGAS, NV  CLEAR    101  27   7 E9        29.81S HX  94
ELY            CLEAR     79  23  12 N12       30.21R
ELKO           SUNNY     79  12   8 NE6       30.19S
POCATELLO, ID  CLEAR     70  23  17 SE5       30.27S
BURLEY         CLEAR     70  30  22 N7        30.23S
EVANSTON, WY   CLEAR     66  15  14 N8        30.34R
ROCK SPRINGS   CLEAR     66  15  14 NW9       30.31R
KEMMERER       CLEAR     61  21  21 NW13      30.36S

$$


USA.gov is the U.S. government's official web portal to all federal, state and local government web resources and services.